This is the latest recevied weather packets stored in our database for station/object KI6SYE. If no packets are shown the sender has not sent any weather packets the latest 10 day(s).
| Time | Temp. | Humidity | Pressure | Rain* | Wind** | Luminosity | Snow |
|---|---|---|---|---|---|---|---|
| 1777649660 | 17.78° C | 78% | 1014.6 hPa | 0 mm | - | 140 W/m² | - |
| 1777649356 | 17.22° C | 78% | 1014.7 hPa | 0 mm | - | 123 W/m² | - |
| 1777649053 | 17.22° C | 78% | 1014.7 hPa | 0 mm | - | 111 W/m² | - |
| 1777648751 | 17.22° C | 79% | 1014.6 hPa | 0 mm | - | 97 W/m² | - |
| 1777648447 | 17.22° C | 79% | 1014.6 hPa | 0 mm | - | 95 W/m² | - |
| 1777648143 | 17.22° C | 79% | 1014.6 hPa | 0 mm | - | 88 W/m² | - |
| 1777647840 | 17.22° C | 80% | 1014.4 hPa | 0 mm | - | 84 W/m² | - |
| 1777647535 | 17.22° C | 79% | 1014.6 hPa | 0 mm | - | 73 W/m² | - |
| 1777647233 | 16.67° C | 80% | 1014.4 hPa | 0 mm | - | 68 W/m² | - |
| 1777646930 | 16.67° C | 80% | 1014.3 hPa | 0 mm | - | 64 W/m² | - |
| 1777646625 | 16.67° C | 80% | 1014.4 hPa | 0 mm | - | 67 W/m² | - |
| 1777646322 | 16.67° C | 81% | 1014.6 hPa | 0 mm | - | 58 W/m² | - |
| 1777646019 | 16.67° C | 81% | 1014.4 hPa | 0 mm | - | 56 W/m² | - |
| 1777645715 | 16.67° C | 81% | 1014.5 hPa | 0 mm | - | 52 W/m² | - |
| 1777645412 | 16.67° C | 81% | 1014.4 hPa | 0 mm | - | 44 W/m² | - |
| 1777645108 | 16.67° C | 82% | 1014.4 hPa | 0 mm | - | 36 W/m² | - |
| 1777644805 | 16.11° C | 82% | 1014.1 hPa | 0 mm | - | 36 W/m² | - |
| 1777644503 | 16.11° C | 82% | 1014.1 hPa | 0 mm | - | 31 W/m² | - |
| 1777644198 | 16.11° C | 83% | 1014.1 hPa | 0 mm | - | 26 W/m² | - |
| 1777643895 | 16.11° C | 83% | 1014.1 hPa | 0 mm | - | 23 W/m² | - |
| 1777643593 | 16.11° C | 83% | 1013.7 hPa | 0 mm | - | 18 W/m² | - |
| 1777643290 | 16.11° C | 83% | 1014.1 hPa | 0 mm | - | 16 W/m² | - |
| 1777642985 | 16.11° C | 83% | 1013.9 hPa | 0 mm | - | 13 W/m² | - |
| 1777642681 | 16.11° C | 83% | 1014.2 hPa | 0 mm | - | 9 W/m² | - |
| 1777642380 | 16.11° C | 84% | 1013.8 hPa | 0 mm | - | 8 W/m² | - |
* Rain latest hour (hover to see other rain measurements)
** Current wind speed in m/s (hover to see current wind gust speed)